CZ-6A DEB, 61479

Orbit data source: Space-Track

CZ-6A DEB, 61479 is space debris in LEO originally from a launch on Tue, 06 Aug 2024 UTC launched from the Taiyaun Space Center, China (TSC). Debris objects in space refer to the collection of defunct objects orbiting the Earth. Examples of debris include non-operational satellites, rocket bodies, and fragments generated from explosions, collisions, or faulty payload assembly.

Loading next visibility...
Identifier
61479, 2024-140AAM
Orbit
LEO
Last TLE update
7 hours ago
Origin
Manufacturer
SAST
Mission
Spacecraft
Bus & Motor
Unknown
Mass
Unknown
Launch date (UTC)
2024-08-06 (11 months ago)
Launch vehicle
Unknown
Launch site
Taiyaun Space Center, China (TSC)
Object type
Payload
Rocket body
Debris
Shape & HBR
Unknown
Radar Cross Section
Small (<0.1 m²)

Expand to show TLE details & history

TLE from 7 hours ago
0 CZ-6A DEB
1 61479U 24140AAM 25190.39089179  .00000826  00000-0  46697-3 0  9992
2 61479  89.0705 316.9402 0162728 204.4909 154.8482 14.02912515 45132
Epoch: 2025-07-09T09:22Z
TLE epoch observation values (Epoch: 2025-07-09T09:22:53.05Z)
Latitude
0.00002°
Longitude
-111.35304°
Altitude
994.085 km
Speed
7.3 km/s
True Right ascension
21h 07m 45s
True Declination
0° 00' 00"
Sunlit
Object was in full shadow at epoch
Visualization orbit readout
Latitude
59.47431°
Longitude
-109.815°
Altitude
989.059 km
Speed
7.314 km/s
Apparent Right ascension
18h 37m 34s
Apparent Declination
17° 21' 58"
Sunlit
Object is in daylight
Visualization observer readout
Local Sidereal Time
04:42:09
Azimuth
328.957° NNW
Elevation
-26.718°
Doppler factor
1
Orbital elements
Apogee altitude
998.823 km
Perigee altitude
762.58 km
Semi-major axis
7,258.838 km
Eccentricity
0.01627
Inclination
89.0705°
RAAN
316.9402°
Arg. of periapsis
204.4909°
True anomaly
Unknown
Mean anomaly
154.8482°
Eccentric anomaly
Unknown
Mean motion
3.50948 °/min
Orbital period
102.58 mins
BSTAR
0.00046697
Loading maneuver chart data...
Loading SW <> Apogee altitude chart data...
Loading historical data...
Loading historical data...
Loading historical data...
Loading historical data...
Loading historical data...
Loading historical data...
Loading historical data...

CZ-6A DEB Visibility forecast

Observer location: undefined°, undefined°

Span
Click to sort rows by Start time (UTC) header in descending order
Start Az.
Max El. time (UTC)
Max El. Az.
Max El.
End time (UTC)
End Az.
9 mins2025-07-09 20:15:09.855Z16.706° NNE2025-07-09 20:20:09.855Z100.283° ESE34.592°2025-07-09 20:24:09.855Z155.829° SSE
6 mins2025-07-09 21:59:09.855Z320.424° NNW2025-07-09 22:02:09.855Z280.202° WNW19.761°2025-07-09 22:05:09.855Z242.12° WSW
8 mins2025-07-10 07:47:09.855Z117.587° SE2025-07-10 07:50:09.855Z79.547° E24.081°2025-07-10 07:55:09.855Z24.375° NE
10 mins2025-07-10 09:28:09.855Z207.309° SW2025-07-10 09:32:09.855Z262.244° W35.858°2025-07-10 09:38:09.855Z345.534° N
|